Location: ?????
(55.8833°N, 37.6500°E)
Time: 18:49:27
(UTC+00:00)

STARLINK-1050 - Pass Details

Date: 27 February 2020
Orbit: 549 x 550 km, 53.0° (Epoch: 06 April)

Event Time Altitude Azimuth Distance (km) Brightness Sun altitude
Rises 17:10:45 0° 233° (SW) 2,712 7.7 -19.2°
Reaches altitude 10° 17:13:04 10° 225° (SW) 1,821 6.6 -19.6°
Enters shadow 17:16:41 37° 165° (SSE) 863 4.3 -20.0°
